Time,TemperatureF,DewpointF,PressureIn,WindDirection,WindDirectionDegrees,WindSpeedMPH,WindSpeedGustMPH,Humidity,HourlyPrecipIn,Conditions,Clouds,dailyrainin,SoftwareType,DateUTC
2013-02-16 00:11:00,52.0,39.0,29.64,North,354,7.0,-999.0,61,0.00,,,0.00,,2013-02-16 08:11:00,
2013-02-16 00:21:00,52.0,39.0,29.64,North,354,7.0,-999.0,61,0.00,,,0.00,,2013-02-16 08:21:00,
2013-02-16 00:31:00,52.0,39.0,29.64,North,354,7.0,-999.0,61,0.00,,,0.00,,2013-02-16 08:31:00,
2013-02-16 00:41:00,52.0,39.0,29.64,North,354,7.0,-999.0,61,0.00,,,0.00,,2013-02-16 08:41:00,
2013-02-16 01:11:00,50.0,39.0,29.63,East,88,4.0,-999.0,66,0.00,,,-99.99,,2013-02-16 09:11:00,
2013-02-16 01:21:00,50.0,39.0,29.63,East,88,4.0,-999.0,66,0.00,,,-99.99,,2013-02-16 09:21:00,
2013-02-16 01:31:00,50.0,39.0,29.63,East,88,4.0,-999.0,66,0.00,,,-99.99,,2013-02-16 09:31:00,
2013-02-16 01:42:00,50.0,39.0,29.63,East,88,4.0,-999.0,66,0.00,,,-99.99,,2013-02-16 09:42:00,
2013-02-16 02:11:00,50.0,37.0,29.62,NE,37,6.0,-999.0,61,0.00,,,0.00,,2013-02-16 10:11:00,
2013-02-16 02:21:00,50.0,37.0,29.62,NE,37,6.0,-999.0,61,0.00,,,0.00,,2013-02-16 10:21:00,
2013-02-16 02:31:00,50.0,37.0,29.62,NE,37,6.0,-999.0,61,0.00,,,0.00,,2013-02-16 10:31:00,
2013-02-16 02:41:00,50.0,37.0,29.62,NE,37,6.0,-999.0,61,0.00,,,0.00,,2013-02-16 10:41:00,
2013-02-16 03:11:00,50.0,36.0,29.60,ENE,66,6.0,-999.0,58,0.00,,,0.00,,2013-02-16 11:11:00,
2013-02-16 03:22:00,50.0,36.0,29.60,ENE,66,6.0,-999.0,58,0.00,,,0.00,,2013-02-16 11:22:00,
2013-02-16 03:31:00,50.0,36.0,29.60,ENE,66,6.0,-999.0,58,0.00,,,0.00,,2013-02-16 11:31:00,
2013-02-16 03:42:00,50.0,36.0,29.60,ENE,66,6.0,-999.0,58,0.00,,,0.00,,2013-02-16 11:42:00,
2013-02-16 04:12:00,49.0,34.0,29.59,South,174,4.0,-999.0,55,0.00,,,0.00,,2013-02-16 12:12:00,
2013-02-16 04:22:00,49.0,34.0,29.59,South,174,4.0,-999.0,55,0.00,,,0.00,,2013-02-16 12:22:00,
2013-02-16 04:32:00,49.0,34.0,29.59,South,174,4.0,-999.0,55,0.00,,,0.00,,2013-02-16 12:32:00,
2013-02-16 04:42:00,49.0,34.0,29.59,South,174,4.0,-999.0,55,0.00,,,0.00,,2013-02-16 12:42:00,
2013-02-16 05:11:00,48.0,35.0,29.58,SE,126,8.0,-999.0,60,0.00,,,0.00,,2013-02-16 13:11:00,
2013-02-16 05:21:00,48.0,35.0,29.58,SE,126,8.0,-999.0,60,0.00,,,0.00,,2013-02-16 13:21:00,
2013-02-16 05:31:00,48.0,35.0,29.58,SE,126,8.0,-999.0,60,0.00,,,0.00,,2013-02-16 13:31:00,
2013-02-16 05:41:00,48.0,35.0,29.58,SE,126,8.0,-999.0,60,0.00,,,0.00,,2013-02-16 13:41:00,
2013-02-16 06:11:00,47.0,33.0,29.59,ESE,123,8.0,-999.0,60,0.00,,,0.00,,2013-02-16 14:11:00,
2013-02-16 06:21:00,47.0,33.0,29.59,ESE,123,8.0,-999.0,60,0.00,,,0.00,,2013-02-16 14:21:00,
2013-02-16 06:32:00,47.0,33.0,29.59,ESE,123,8.0,-999.0,60,0.00,,,0.00,,2013-02-16 14:32:00,
2013-02-16 06:41:00,47.0,33.0,29.59,ESE,123,8.0,-999.0,60,0.00,,,0.00,,2013-02-16 14:41:00,
2013-02-16 07:11:00,47.0,31.0,29.59,North,357,7.0,-999.0,54,0.00,,,0.00,,2013-02-16 15:11:00,
2013-02-16 07:21:00,47.0,31.0,29.59,North,357,7.0,-999.0,54,0.00,,,0.00,,2013-02-16 15:21:00,
2013-02-16 07:31:00,47.0,31.0,29.59,North,357,7.0,-999.0,54,0.00,,,0.00,,2013-02-16 15:31:00,
2013-02-16 07:41:00,47.0,31.0,29.59,North,357,7.0,-999.0,54,0.00,,,0.00,,2013-02-16 15:41:00,
2013-02-16 08:11:00,47.0,31.0,29.61,ENE,73,3.0,-999.0,55,0.00,,,0.00,,2013-02-16 16:11:00,
2013-02-16 08:21:00,47.0,31.0,29.61,ENE,73,3.0,-999.0,55,0.00,,,0.00,,2013-02-16 16:21:00,
2013-02-16 08:32:00,47.0,31.0,29.61,ENE,73,3.0,-999.0,55,0.00,,,0.00,,2013-02-16 16:32:00,
2013-02-16 08:41:00,47.0,31.0,29.61,ENE,73,3.0,-999.0,55,0.00,,,0.00,,2013-02-16 16:41:00,
2013-02-16 09:11:00,52.0,32.0,29.61,NNE,33,7.0,-999.0,45,0.00,,,0.00,,2013-02-16 17:11:00,
2013-02-16 09:21:00,52.0,32.0,29.61,NNE,33,7.0,-999.0,45,0.00,,,0.00,,2013-02-16 17:21:00,
2013-02-16 09:32:00,52.0,32.0,29.61,NNE,33,7.0,-999.0,45,0.00,,,0.00,,2013-02-16 17:32:00,
2013-02-16 09:41:00,52.0,32.0,29.61,NNE,33,7.0,-999.0,45,0.00,,,0.00,,2013-02-16 17:41:00,
2013-02-16 10:11:00,62.0,31.0,29.59,NE,41,5.0,-999.0,32,0.00,,,0.00,,2013-02-16 18:11:00,
2013-02-16 10:21:00,62.0,31.0,29.59,NE,41,5.0,-999.0,32,0.00,,,0.00,,2013-02-16 18:21:00,
2013-02-16 10:33:00,62.0,31.0,29.59,NE,41,5.0,-999.0,32,0.00,,,0.00,,2013-02-16 18:33:00,
2013-02-16 10:41:00,62.0,31.0,29.59,NE,41,5.0,-999.0,32,0.00,,,0.00,,2013-02-16 18:41:00,
2013-02-16 11:11:00,70.0,29.0,29.57,ESE,118,2.0,-999.0,21,0.00,,,0.00,,2013-02-16 19:11:00,
2013-02-16 11:21:00,70.0,29.0,29.57,ESE,118,2.0,-999.0,21,0.00,,,0.00,,2013-02-16 19:21:00,
2013-02-16 11:31:00,70.0,29.0,29.57,ESE,118,2.0,-999.0,21,0.00,,,0.00,,2013-02-16 19:31:00,
2013-02-16 11:42:00,70.0,29.0,29.57,ESE,118,2.0,-999.0,21,0.00,,,0.00,,2013-02-16 19:42:00,
2013-02-16 12:11:00,70.0,34.0,29.55,SW,223,4.0,-999.0,27,0.00,,,0.00,,2013-02-16 20:11:00,
2013-02-16 12:21:00,70.0,34.0,29.55,SW,223,4.0,-999.0,27,0.00,,,0.00,,2013-02-16 20:21:00,
2013-02-16 12:32:00,70.0,34.0,29.55,SW,223,4.0,-999.0,27,0.00,,,0.00,,2013-02-16 20:32:00,
2013-02-16 12:42:00,70.0,34.0,29.55,SW,223,4.0,-999.0,27,0.00,,,0.00,,2013-02-16 20:42:00,
2013-02-16 13:11:00,69.0,37.0,29.52,SW,232,5.0,-999.0,31,0.00,,,0.00,,2013-02-16 21:11:00,
2013-02-16 13:21:00,69.0,37.0,29.52,SW,232,5.0,-999.0,31,0.00,,,0.00,,2013-02-16 21:21:00,
2013-02-16 13:31:00,69.0,37.0,29.52,SW,232,5.0,-999.0,31,0.00,,,0.00,,2013-02-16 21:31:00,
2013-02-16 13:41:00,69.0,37.0,29.52,SW,232,5.0,-999.0,31,0.00,,,0.00,,2013-02-16 21:41:00,
2013-02-16 14:11:00,68.0,42.0,29.49,WNW,287,4.0,-999.0,38,0.00,,,0.00,,2013-02-16 22:11:00,
2013-02-16 14:21:00,68.0,42.0,29.49,WNW,287,4.0,-999.0,38,0.00,,,0.00,,2013-02-16 22:21:00,
2013-02-16 14:32:00,68.0,42.0,29.49,WNW,287,4.0,-999.0,38,0.00,,,0.00,,2013-02-16 22:32:00,
2013-02-16 14:42:00,68.0,42.0,29.49,WNW,287,4.0,-999.0,38,0.00,,,0.00,,2013-02-16 22:42:00,
2013-02-16 15:11:00,69.0,40.0,29.46,SSE,152,4.0,-999.0,35,0.00,,,0.00,,2013-02-16 23:11:00,
2013-02-16 15:21:00,69.0,40.0,29.46,SSE,152,4.0,-999.0,35,0.00,,,0.00,,2013-02-16 23:21:00,
2013-02-16 15:31:00,69.0,40.0,29.46,SSE,152,4.0,-999.0,35,0.00,,,0.00,,2013-02-16 23:31:00,
2013-02-16 15:42:00,69.0,40.0,29.46,SSE,152,4.0,-999.0,35,0.00,,,0.00,,2013-02-16 23:42:00,
2013-02-16 16:12:00,73.0,33.0,29.45,NW,320,3.0,-999.0,23,0.00,,,0.00,,2013-02-17 00:12:00,
2013-02-16 16:21:00,73.0,33.0,29.45,NW,320,3.0,-999.0,23,0.00,,,0.00,,2013-02-17 00:21:00,
2013-02-16 16:31:00,73.0,33.0,29.45,NW,320,3.0,-999.0,23,0.00,,,0.00,,2013-02-17 00:31:00,
2013-02-16 16:41:00,73.0,33.0,29.45,NW,320,3.0,-999.0,23,0.00,,,0.00,,2013-02-17 00:41:00,
2013-02-16 17:11:00,68.0,37.0,29.44,South,176,3.0,-999.0,33,0.00,,,0.00,,2013-02-17 01:11:00,
2013-02-16 17:21:00,68.0,37.0,29.44,South,176,3.0,-999.0,33,0.00,,,0.00,,2013-02-17 01:21:00,
2013-02-16 17:31:00,68.0,37.0,29.44,South,176,3.0,-999.0,33,0.00,,,0.00,,2013-02-17 01:31:00,
2013-02-16 17:41:00,68.0,37.0,29.44,South,176,3.0,-999.0,33,0.00,,,0.00,,2013-02-17 01:41:00,
2013-02-16 19:11:00,60.0,40.0,29.43,South,185,2.0,-999.0,48,-99.99,,,0.00,,2013-02-17 03:11:00,
2013-02-16 19:21:00,60.0,40.0,29.43,South,185,2.0,-999.0,48,-99.99,,,0.00,,2013-02-17 03:21:00,
2013-02-16 19:31:00,60.0,40.0,29.43,South,185,2.0,-999.0,48,-99.99,,,0.00,,2013-02-17 03:31:00,
2013-02-16 19:42:00,60.0,40.0,29.43,South,185,2.0,-999.0,48,-99.99,,,0.00,,2013-02-17 03:42:00,
2013-02-16 20:11:00,56.0,40.0,29.43,South,188,1.0,-999.0,55,0.00,,,0.00,,2013-02-17 04:11:00,
2013-02-16 20:21:00,56.0,40.0,29.43,South,188,1.0,-999.0,55,0.00,,,0.00,,2013-02-17 04:21:00,
2013-02-16 20:31:00,56.0,40.0,29.43,South,188,1.0,-999.0,55,0.00,,,0.00,,2013-02-17 04:31:00,
2013-02-16 20:41:00,56.0,40.0,29.43,South,188,1.0,-999.0,55,0.00,,,0.00,,2013-02-17 04:41:00,
2013-02-16 21:12:00,55.0,40.0,29.44,ESE,123,6.0,-999.0,56,0.00,,,0.00,,2013-02-17 05:12:00,
2013-02-16 21:22:00,55.0,40.0,29.44,ESE,123,6.0,-999.0,56,0.00,,,0.00,,2013-02-17 05:22:00,
2013-02-16 21:32:00,55.0,40.0,29.44,ESE,123,6.0,-999.0,56,0.00,,,0.00,,2013-02-17 05:32:00,
2013-02-16 21:42:00,55.0,40.0,29.44,ESE,123,6.0,-999.0,56,0.00,,,0.00,,2013-02-17 05:42:00,
2013-02-16 22:11:00,53.0,37.0,29.44,NNE,25,6.0,-999.0,54,0.00,,,0.00,,2013-02-17 06:11:00,
2013-02-16 22:21:00,53.0,37.0,29.44,NNE,25,6.0,-999.0,54,0.00,,,0.00,,2013-02-17 06:21:00,
2013-02-16 22:31:00,53.0,37.0,29.44,NNE,25,6.0,-999.0,54,0.00,,,0.00,,2013-02-17 06:31:00,
2013-02-16 22:41:00,53.0,37.0,29.44,NNE,25,6.0,-999.0,54,0.00,,,0.00,,2013-02-17 06:41:00,
2013-02-16 23:11:00,51.0,37.0,29.43,WNW,288,2.0,-999.0,60,0.00,,,0.00,,2013-02-17 07:11:00,
2013-02-16 23:21:00,51.0,37.0,29.43,WNW,288,2.0,-999.0,60,0.00,,,0.00,,2013-02-17 07:21:00,
2013-02-16 23:31:00,51.0,37.0,29.43,WNW,288,2.0,-999.0,60,0.00,,,0.00,,2013-02-17 07:31:00,
2013-02-16 23:41:00,51.0,37.0,29.43,WNW,288,2.0,-999.0,60,0.00,,,0.00,,2013-02-17 07:41:00,